﻿_id,日時,平均風速(m/s),平均風向,最大瞬間風速(m/s),最大風速時風向,気温(℃),湿度(%),10分間移動積算雨量(mm),1時間移動積算雨量(mm),日雨量(mm),累計雨量(mm),日射(日積算)(MJ/m2),日照(日積算)(min),現地気圧(hPa),海面気圧(hPa)
1,2023-04-17T00:00:00,2.6,北北東,4.6,北北東,9.7,89.7,0.5,0.5,7,7,15.76,398,995.1,1009.1
2,2023-04-17T00:01:00,2.4,北北東,4,北,9.8,89.8,0.5,0.5,0,7,0,0,995.1,1009.1
3,2023-04-17T00:02:00,2.3,北北東,4,北,9.7,90,0.5,0.5,0,7,0,0,995.1,1009.1
4,2023-04-17T00:03:00,2.2,北北東,4,北,9.8,90.8,0.5,0.5,0,7,0,0,995.1,1009.1
5,2023-04-17T00:04:00,2,北北東,3.7,北北東,9.8,91.1,0.5,0.5,0,7,0,0,995.2,1009.2
6,2023-04-17T00:05:00,1.9,北,3.7,北北東,9.7,91,0.5,0.5,0,7,0,0,995.2,1009.2
7,2023-04-17T00:06:00,1.7,北,3.7,北北東,9.5,91,0.5,0.5,0,7,0,0,995.2,1009.2
8,2023-04-17T00:07:00,1.6,北,3.7,北北東,9.4,90.9,0,0.5,0,7,0,0,995.2,1009.2
9,2023-04-17T00:08:00,1.6,北,3.7,北北東,9.4,91.1,0,0.5,0,7,0,0,995.2,1009.2
10,2023-04-17T00:09:00,1.6,北,3.7,北北東,9.5,91.6,0,0.5,0,7,0,0,995.2,1009.2
11,2023-04-17T00:10:00,1.5,北北西,3.7,北北東,9.5,91.8,0,0.5,0,7,0,0,995.2,1009.2
12,2023-04-17T00:11:00,1.4,北北西,3.7,北北東,9.4,91.6,0,0.5,0,7,0,0,995.2,1009.2
13,2023-04-17T00:12:00,1.4,北北西,3.2,北,9.5,91.7,0,0.5,0,7,0,0,995.2,1009.2
14,2023-04-17T00:13:00,1.4,北北西,3.2,北,9.4,91.7,0,0.5,0,7,0,0,995.2,1009.2
15,2023-04-17T00:14:00,1.3,北北西,3.2,北,9.4,91.7,0,0.5,0,7,0,0,995.2,1009.2
16,2023-04-17T00:15:00,1.3,北北西,3.2,北,9.4,91.8,0,0.5,0,7,0,0,995.2,1009.2
17,2023-04-17T00:16:00,1.3,北北西,3.2,北,9.5,91.9,0,0.5,0,7,0,0,995.2,1009.2
18,2023-04-17T00:17:00,1.3,北北西,3.2,北,9.5,91.8,0,0.5,0,7,0,0,995.2,1009.2
19,2023-04-17T00:18:00,1.3,北北西,3.2,北,9.4,91.9,0,0.5,0,7,0,0,995.2,1009.2
20,2023-04-17T00:19:00,1.4,北北西,3.9,北,9.5,92.1,0.5,1,0.5,7.5,0,0,995.2,1009.2
21,2023-04-17T00:20:00,1.4,北北西,4.2,北北東,9.5,92.2,0.5,1,0.5,7.5,0,0,995.2,1009.2
22,2023-04-17T00:21:00,1.6,北,4.2,北北東,9.5,92.2,0.5,1,0.5,7.5,0,0,995.2,1009.2
23,2023-04-17T00:22:00,1.7,北,4.2,北北東,9.6,92.4,0.5,1,0.5,7.5,0,0,995.3,1009.3
24,2023-04-17T00:23:00,1.8,北,4.4,北北東,9.9,92.8,0.5,1,0.5,7.5,0,0,995.2,1009.2
25,2023-04-17T00:24:00,2,北,4.4,北北東,9.9,93.2,0.5,1,0.5,7.5,0,0,995.3,1009.3
26,2023-04-17T00:25:00,2.2,北,4.4,北北東,9.9,92.9,0.5,1,0.5,7.5,0,0,995.2,1009.2
27,2023-04-17T00:26:00,2.3,北,4.4,北北東,9.8,92.5,0.5,1,0.5,7.5,0,0,995.2,1009.2
28,2023-04-17T00:27:00,2.4,北,4.4,北北東,9.8,91.8,0.5,1,0.5,7.5,0,0,995.2,1009.2
29,2023-04-17T00:28:00,2.5,北北東,4.4,北北東,9.8,91.8,0.5,1,0.5,7.5,0,0,995.2,1009.2
30,2023-04-17T00:29:00,2.4,北,4.4,北北東,9.6,91.3,0,1,0.5,7.5,0,0,995.2,1009.2
31,2023-04-17T00:30:00,2.3,北北東,4.4,北北東,9.6,91,0,1,0.5,7.5,0,0,995.1,1009.1
32,2023-04-17T00:31:00,2.2,北北東,4.4,北北東,9.6,91.5,0,1,0.5,7.5,0,0,995.1,1009.1
33,2023-04-17T00:32:00,2.1,北北東,4.4,北北東,9.7,91.9,0,1,0.5,7.5,0,0,995.1,1009.1
34,2023-04-17T00:33:00,2,北北東,4,北,9.6,91.8,0,1,0.5,7.5,0,0,995.1,1009.1
35,2023-04-17T00:34:00,1.9,北北東,3.7,北,9.5,92.1,0,1,0.5,7.5,0,0,995.1,1009.1
36,2023-04-17T00:35:00,1.8,北北東,2.9,北,9.5,92.1,0,1,0.5,7.5,0,0,995.1,1009.1
37,2023-04-17T00:36:00,1.7,北北東,2.7,北北東,9.4,92.2,0,1,0.5,7.5,0,0,995.1,1009.1
38,2023-04-17T00:37:00,1.6,北北東,2.7,北北東,9.4,92.3,0,1,0.5,7.5,0,0,995.1,1009.1
39,2023-04-17T00:38:00,1.6,北北東,2.7,北北東,9.4,92.4,0,1,0.5,7.5,0,0,995.1,1009.1
40,2023-04-17T00:39:00,1.7,北東,2.7,北北東,9.5,92.8,0,1,0.5,7.5,0,0,995.1,1009.1
41,2023-04-17T00:40:00,1.7,北東,2.7,北北東,9.5,93.3,0,1,0.5,7.5,0,0,995.1,1009.1
42,2023-04-17T00:41:00,1.6,北東,2.6,北東,9.6,93.4,0,1,0.5,7.5,0,0,995.1,1009.1
43,2023-04-17T00:42:00,1.5,北東,2.6,北東,9.4,93.6,0,1,0.5,7.5,0,0,995.1,1009.1
44,2023-04-17T00:43:00,1.4,北東,2.4,北東,9.3,93.3,0,1,0.5,7.5,0,0,995.1,1009.1
45,2023-04-17T00:44:00,1.3,北東,2.1,北東,9.3,93.4,0,1,0.5,7.5,0,0,995.2,1009.2
46,2023-04-17T00:45:00,1.2,北東,2.1,北東,9.3,93.6,0,1,0.5,7.5,0,0,995.2,1009.2
47,2023-04-17T00:46:00,1.2,北東,2,北東,9.4,94,0,1,0.5,7.5,0,0,995.3,1009.3
48,2023-04-17T00:47:00,1,北東,2,北東,9.4,94.4,0,1,0.5,7.5,0,0,995.3,1009.3
49,2023-04-17T00:48:00,0.9,北東,2,北東,9.4,94.7,0,1,0.5,7.5,0,0,995.3,1009.3
50,2023-04-17T00:49:00,0.8,北北東,1.8,北東,9.4,94.6,0,1,0.5,7.5,0,0,995.2,1009.2
51,2023-04-17T00:50:00,0.7,北北東,1.5,北東,9.2,94.6,0,1,0.5,7.5,0,0,995.2,1009.2
52,2023-04-17T00:51:00,0.7,北北東,1.3,北東,9.1,94.4,0,1,0.5,7.5,0,0,995.2,1009.2
53,2023-04-17T00:52:00,0.6,北北東,1.3,北東,9,94.5,0,1,0.5,7.5,0,0,995.2,1009.2
54,2023-04-17T00:53:00,0.6,北東,1.3,北東,8.9,94.5,0,1,0.5,7.5,0,0,995.1,1009.2
55,2023-04-17T00:54:00,0.5,北北東,1.3,北東,9,94.7,0,1,0.5,7.5,0,0,995.1,1009.1
56,2023-04-17T00:55:00,0.5,北北東,1.3,北東,9,94.9,0,1,0.5,7.5,0,0,995.1,1009.1
57,2023-04-17T00:56:00,0.4,北東,1.2,北北東,8.9,95,0,1,0.5,7.5,0,0,995.1,1009.2
58,2023-04-17T00:57:00,0.4,北東,1.2,北北東,9,95.3,0,0.5,0.5,7.5,0,0,995.1,1009.1
59,2023-04-17T00:58:00,0.4,東北東,1.2,北北東,9.2,95.6,0,0.5,0.5,7.5,0,0,995.2,1009.2
60,2023-04-17T00:59:00,0.4,北東,1.2,北北東,9.2,95.8,0,0.5,0.5,7.5,0,0,995.2,1009.2
61,2023-04-17T01:00:00,0.3,東北東,1,北北東,9,95.5,0,0.5,0.5,7.5,0,0,995.2,1009.2
62,2023-04-17T01:01:00,0.2,静穏,0.9,南南西,9,95.5,0,0.5,0.5,7.5,0,0,995.2,1009.2
63,2023-04-17T01:02:00,0.2,静穏,0.9,南南西,9,95.3,0,0.5,0.5,7.5,0,0,995.2,1009.2
64,2023-04-17T01:03:00,0.2,静穏,0.8,南,9,95.5,0,0.5,0.5,7.5,0,0,995.2,1009.2
65,2023-04-17T01:04:00,0.2,静穏,0.8,南,9.1,95.6,0,0.5,0.5,7.5,0,0,995.2,1009.2
66,2023-04-17T01:05:00,0.2,静穏,0.8,南,9.1,95.7,0,0.5,0.5,7.5,0,0,995.2,1009.2
67,2023-04-17T01:06:00,0.2,静穏,0.7,北北東,9.2,95.8,0,0.5,0.5,7.5,0,0,995.2,1009.2
68,2023-04-17T01:07:00,0.2,静穏,1.2,西北西,8.9,95.7,0,0.5,0.5,7.5,0,0,995.2,1009.3
69,2023-04-17T01:08:00,0.3,北,1.3,西北西,9,95.7,0,0.5,0.5,7.5,0,0,995.2,1009.2
70,2023-04-17T01:09:00,0.5,北,1.5,北西,9,95.7,0,0.5,0.5,7.5,0,0,995.3,1009.3
71,2023-04-17T01:10:00,0.6,北北西,1.7,西北西,9.1,95.9,0,0.5,0.5,7.5,0,0,995.2,1009.2
72,2023-04-17T01:11:00,0.7,北北西,1.7,西北西,9.2,96.1,0,0.5,0.5,7.5,0,0,995.2,1009.2
73,2023-04-17T01:12:00,0.9,北西,1.7,西北西,9,95.9,0,0.5,0.5,7.5,0,0,995.2,1009.2
74,2023-04-17T01:13:00,1,北西,1.7,西北西,9,95.9,0,0.5,0.5,7.5,0,0,995.2,1009.2
75,2023-04-17T01:14:00,1,北西,1.7,西北西,9,95.9,0,0.5,0.5,7.5,0,0,995.2,1009.2
76,2023-04-17T01:15:00,1.1,北西,1.7,西北西,9.2,96.1,0,0.5,0.5,7.5,0,0,995.2,1009.2
77,2023-04-17T01:16:00,1.1,北西,1.7,西北西,9,96.2,0,0.5,0.5,7.5,0,0,995.2,1009.2
78,2023-04-17T01:17:00,1.1,北西,1.7,西北西,9.1,96.1,0,0.5,0.5,7.5,0,0,995.1,1009.1
79,2023-04-17T01:18:00,1.1,北西,1.7,西北西,9,95.9,0,0.5,0.5,7.5,0,0,995.2,1009.2
80,2023-04-17T01:19:00,1.1,北北西,1.8,北北東,9,96,0,0,0.5,7.5,0,0,995.2,1009.2
81,2023-04-17T01:20:00,1.1,北北西,2,北北東,9.1,96.1,0,0,0.5,7.5,0,0,995.2,1009.2
82,2023-04-17T01:21:00,1.1,北,2,北北東,9.1,96.1,0,0,0.5,7.5,0,0,995.2,1009.2
83,2023-04-17T01:22:00,1.1,北,2,北北東,9.1,96.1,0,0,0.5,7.5,0,0,995.1,1009.1
84,2023-04-17T01:23:00,1,北,2,北北東,9.2,96.1,0,0,0.5,7.5,0,0,995.2,1009.2
85,2023-04-17T01:24:00,1.1,北北東,2,北北東,8.9,96,0,0,0.5,7.5,0,0,995.2,1009.3
86,2023-04-17T01:25:00,1.1,北北東,2,北北東,8.9,95.8,0,0,0.5,7.5,0,0,995.2,1009.3
87,2023-04-17T01:26:00,1.2,北北東,2,北北東,9.1,96.1,0,0,0.5,7.5,0,0,995.2,1009.2
88,2023-04-17T01:27:00,1.4,北東,2.2,北東,8.9,96,0,0,0.5,7.5,0,0,995.2,1009.3
89,2023-04-17T01:28:00,1.4,北東,2.3,北北東,9.1,96.1,0,0,0.5,7.5,0,0,995.2,1009.2
90,2023-04-17T01:29:00,1.5,北東,3.2,北東,9.1,96.2,0,0,0.5,7.5,0,0,995.2,1009.2
91,2023-04-17T01:30:00,1.6,北東,3.5,北北東,9.1,96.2,0,0,0.5,7.5,0,0,995.2,1009.2
92,2023-04-17T01:31:00,1.8,北東,3.8,北北東,9.2,96.4,0,0,0.5,7.5,0,0,995.2,1009.2
93,2023-04-17T01:32:00,2,北東,3.8,北北東,9,96.2,0,0,0.5,7.5,0,0,995.2,1009.2
94,2023-04-17T01:33:00,2.2,北東,4,北東,9.1,96.2,0,0,0.5,7.5,0,0,995.2,1009.2
95,2023-04-17T01:34:00,2.4,北北東,4,北東,8.9,96.1,0,0,0.5,7.5,0,0,995.2,1009.3
96,2023-04-17T01:35:00,2.6,北北東,4,北東,9,96.1,0,0,0.5,7.5,0,0,995.2,1009.2
97,2023-04-17T01:36:00,2.7,北北東,4,北東,9,96.2,0,0,0.5,7.5,0,0,995.3,1009.3
98,2023-04-17T01:37:00,2.7,北北東,4,北東,8.9,96.2,0,0,0.5,7.5,0,0,995.2,1009.3
99,2023-04-17T01:38:00,2.8,北北東,4,北東,9,96.2,0,0,0.5,7.5,0,0,995.2,1009.2
100,2023-04-17T01:39:00,2.9,北北東,4.4,北東,9.1,96.4,0,0,0.5,7.5,0,0,995.2,1009.2
101,2023-04-17T01:40:00,3,北北東,4.4,北東,9,96.3,0,0,0.5,7.5,0,0,995.2,1009.2
102,2023-04-17T01:41:00,3,北北東,4.4,北東,8.8,96,0,0,0.5,7.5,0,0,995.2,1009.3
103,2023-04-17T01:42:00,3,北東,4.4,北東,9,96.1,0,0,0.5,7.5,0,0,995.2,1009.2
104,2023-04-17T01:43:00,3,北東,4.4,北東,9.2,96.4,0,0,0.5,7.5,0,0,995.3,1009.3
105,2023-04-17T01:44:00,2.9,北東,4.4,北東,9,96.3,0,0,0.5,7.5,0,0,995.3,1009.3
106,2023-04-17T01:45:00,2.8,北東,4.4,北東,9.1,96.2,0,0,0.5,7.5,0,0,995.3,1009.3
107,2023-04-17T01:46:00,2.7,北東,4.4,北東,9.1,96.3,0,0,0.5,7.5,0,0,995.3,1009.3
108,2023-04-17T01:47:00,2.7,北東,4.4,北東,9,96.1,0,0,0.5,7.5,0,0,995.4,1009.4
109,2023-04-17T01:48:00,2.7,北東,4.4,北東,8.8,95.9,0,0,0.5,7.5,0,0,995.4,1009.5
110,2023-04-17T01:49:00,2.5,北北東,4.4,北東,8.9,95.8,0,0,0.5,7.5,0,0,995.5,1009.6
111,2023-04-17T01:50:00,2.3,北北東,4.1,北東,8.9,95.9,0,0,0.5,7.5,0,0,995.5,1009.6
112,2023-04-17T01:51:00,2,北北東,4,北東,8.9,95.8,0,0,0.5,7.5,0,0,995.5,1009.6
113,2023-04-17T01:52:00,1.8,北北東,3.9,北東,8.7,95.6,0,0,0.5,7.5,0,0,995.5,1009.6
114,2023-04-17T01:53:00,1.6,北,3.6,北北東,8.6,95.4,0,0,0.5,7.5,0,0,995.6,1009.7
115,2023-04-17T01:54:00,1.5,北,3.6,北北東,8.7,95.5,0,0,0.5,7.5,0,0,995.6,1009.7
116,2023-04-17T01:55:00,1.4,北,3.6,北北東,8.6,95.4,0,0,0.5,7.5,0,0,995.6,1009.7
117,2023-04-17T01:56:00,1.2,北北西,3.5,北,8.7,95.3,0,0,0.5,7.5,0,0,995.6,1009.7
118,2023-04-17T01:57:00,1,北北西,3.5,北,8.6,95.3,0,0,0.5,7.5,0,0,995.5,1009.6
119,2023-04-17T01:58:00,1,北北西,3.5,北,8.7,95.2,0,0,0.5,7.5,0,0,995.5,1009.6
120,2023-04-17T01:59:00,0.9,北,2.6,北,8.8,95.4,0,0,0.5,7.5,0,0,995.5,1009.6
121,2023-04-17T02:00:00,0.9,北,2.4,西北西,8.7,95.3,0,0,0.5,7.5,0,0,995.6,1009.7
122,2023-04-17T02:01:00,1,北,2.4,西北西,8.8,95.2,0,0,0.5,7.5,0,0,995.6,1009.7
123,2023-04-17T02:02:00,1,北北東,2.5,北東,8.7,95.3,0,0,0.5,7.5,0,0,995.5,1009.6
124,2023-04-17T02:03:00,1.1,北北東,2.5,北東,8.8,95.2,0,0,0.5,7.5,0,0,995.6,1009.7
125,2023-04-17T02:04:00,1.2,北北東,2.5,北東,8.7,95.2,0,0,0.5,7.5,0,0,995.6,1009.7
126,2023-04-17T02:05:00,1.3,北東,2.5,北東,8.7,95.1,0,0,0.5,7.5,0,0,995.6,1009.7
127,2023-04-17T02:06:00,1.4,北東,2.5,北東,8.6,94.8,0,0,0.5,7.5,0,0,995.6,1009.7
128,2023-04-17T02:07:00,1.4,北東,2.5,北東,8.5,94.9,0,0,0.5,7.5,0,0,995.5,1009.6
129,2023-04-17T02:08:00,1.4,北東,2.5,北東,8.6,94.8,0,0,0.5,7.5,0,0,995.6,1009.7
130,2023-04-17T02:09:00,1.3,北東,2.5,北東,8.5,94.9,0,0,0.5,7.5,0,0,995.6,1009.7
131,2023-04-17T02:10:00,1.2,北東,2.5,北東,8.3,94.6,0,0,0.5,7.5,0,0,995.6,1009.7
132,2023-04-17T02:11:00,1.1,北東,2.5,北東,8.3,94.5,0,0,0.5,7.5,0,0,995.7,1009.8
133,2023-04-17T02:12:00,1,北東,2.4,北東,8.2,94.5,0,0,0.5,7.5,0,0,995.7,1009.8
134,2023-04-17T02:13:00,0.8,北北東,2.2,北東,8.2,94.8,0,0,0.5,7.5,0,0,995.8,1009.9
135,2023-04-17T02:14:00,0.7,北北東,2.2,北東,8.2,95,0,0,0.5,7.5,0,0,995.8,1009.9
136,2023-04-17T02:15:00,0.6,北,2.2,北東,8.1,95.2,0,0,0.5,7.5,0,0,995.8,1009.9
137,2023-04-17T02:16:00,0.5,北北西,2.2,北東,8.2,95.3,0,0,0.5,7.5,0,0,995.9,1010
138,2023-04-17T02:17:00,0.5,北北西,2.2,北東,8.2,95.5,0,0,0.5,7.5,0,0,995.9,1010
139,2023-04-17T02:18:00,0.5,北西,1.7,北西,8.2,95.5,0,0,0.5,7.5,0,0,995.8,1009.9
140,2023-04-17T02:19:00,0.5,北西,1.7,北西,8.3,95.7,0,0,0.5,7.5,0,0,995.8,1009.9
141,2023-04-17T02:20:00,0.6,北西,2.9,北,8.2,95.7,0,0,0.5,7.5,0,0,995.8,1009.9
142,2023-04-17T02:21:00,0.8,北西,3.1,北,8.2,95.8,0,0,0.5,7.5,0,0,995.8,1009.9
143,2023-04-17T02:22:00,0.9,北北西,3.1,北,8.1,95.8,0,0,0.5,7.5,0,0,995.9,1010
144,2023-04-17T02:23:00,1.1,北北西,3.1,北,8.2,95.8,0,0,0.5,7.5,0,0,995.8,1009.9
145,2023-04-17T02:24:00,1.2,北北西,3.1,北,8.2,95.9,0,0,0.5,7.5,0,0,995.8,1009.9
146,2023-04-17T02:25:00,1.4,北,3.1,北,8.2,96,0,0,0.5,7.5,0,0,995.8,1009.9
147,2023-04-17T02:26:00,1.5,北,3.1,北,8.3,96.2,0,0,0.5,7.5,0,0,995.8,1009.9
148,2023-04-17T02:27:00,1.6,北,3.1,北,8.2,96.1,0,0,0.5,7.5,0,0,995.8,1009.9
149,2023-04-17T02:28:00,1.7,北北東,3.1,北,8.4,96.2,0,0,0.5,7.5,0,0,995.9,1010
150,2023-04-17T02:29:00,1.8,北北東,3.1,北,8.5,96.5,0,0,0.5,7.5,0,0,995.9,1010
151,2023-04-17T02:30:00,1.8,北北東,3.1,北,8.4,96.2,0,0,0.5,7.5,0,0,995.9,1010
152,2023-04-17T02:31:00,1.8,北北東,3.1,北北東,8.5,96.4,0,0,0.5,7.5,0,0,995.9,1010
153,2023-04-17T02:32:00,1.8,北東,2.9,北東,8.5,96.3,0,0,0.5,7.5,0,0,995.9,1010
154,2023-04-17T02:33:00,1.7,北東,2.9,北東,8.4,96.1,0,0,0.5,7.5,0,0,995.9,1010
155,2023-04-17T02:34:00,1.8,北東,2.9,北東,8.4,96.1,0,0,0.5,7.5,0,0,995.9,1010
156,2023-04-17T02:35:00,1.7,北東,2.9,北東,8.4,96,0,0,0.5,7.5,0,0,996,1010.1
157,2023-04-17T02:36:00,1.7,北東,2.9,北東,8.2,96,0,0,0.5,7.5,0,0,995.9,1010
158,2023-04-17T02:37:00,1.7,北東,2.9,北東,8.2,95.8,0,0,0.5,7.5,0,0,996,1010.1
159,2023-04-17T02:38:00,1.7,北東,2.7,北北東,8.1,95.7,0,0,0.5,7.5,0,0,996,1010.1
160,2023-04-17T02:39:00,1.6,北北東,2.7,北北東,8.1,95.6,0,0,0.5,7.5,0,0,996,1010.1
161,2023-04-17T02:40:00,1.6,北北東,2.7,北北東,8.1,95.7,0,0,0.5,7.5,0,0,996.1,1010.2
162,2023-04-17T02:41:00,1.5,北北東,2.7,北北東,8,95.6,0,0,0.5,7.5,0,0,996.1,1010.2
163,2023-04-17T02:42:00,1.5,北,2.7,北北東,8,95.7,0,0,0.5,7.5,0,0,996.2,1010.3
164,2023-04-17T02:43:00,1.5,北,2.7,北北東,7.9,95.7,0,0,0.5,7.5,0,0,996.2,1010.3
165,2023-04-17T02:44:00,1.4,北北西,2.7,北北東,8,95.6,0,0,0.5,7.5,0,0,996.2,1010.3
166,2023-04-17T02:45:00,1.4,北北西,2.7,北北東,8,95.6,0,0,0.5,7.5,0,0,996.2,1010.3
167,2023-04-17T02:46:00,1.3,北西,2.5,北北東,8.2,95.9,0,0,0.5,7.5,0,0,996.2,1010.3
168,2023-04-17T02:47:00,1.2,北西,2.5,北北東,8.2,96.1,0,0,0.5,7.5,0,0,996.2,1010.3
169,2023-04-17T02:48:00,1,北西,2.5,北北東,7.9,95.9,0,0,0.5,7.5,0,0,996.1,1010.2
170,2023-04-17T02:49:00,0.9,西北西,2,北西,7.9,95.6,0,0,0.5,7.5,0,0,996.2,1010.3
171,2023-04-17T02:50:00,0.9,西北西,2,北西,7.9,95.8,0,0,0.5,7.5,0,0,996.1,1010.2
172,2023-04-17T02:51:00,0.9,西北西,2,北西,7.6,95.5,0,0,0.5,7.5,0,0,996.2,1010.3
173,2023-04-17T02:52:00,0.8,西北西,2,北西,7.6,95.4,0,0,0.5,7.5,0,0,996.2,1010.3
174,2023-04-17T02:53:00,0.7,北西,2,北西,7.6,95.5,0,0,0.5,7.5,0,0,996.2,1010.3
175,2023-04-17T02:54:00,0.6,西北西,1.8,西北西,7.8,95.7,0,0,0.5,7.5,0,0,996.2,1010.3
176,2023-04-17T02:55:00,0.5,西北西,1.5,西北西,7.7,95.8,0,0,0.5,7.5,0,0,996.3,1010.4
177,2023-04-17T02:56:00,0.5,西北西,1.1,西北西,7.8,95.9,0,0,0.5,7.5,0,0,996.3,1010.4
178,2023-04-17T02:57:00,0.5,西北西,1.4,北北西,8,96.2,0,0,0.5,7.5,0,0,996.3,1010.4
179,2023-04-17T02:58:00,0.6,北西,1.4,北北西,7.9,96.1,0,0,0.5,7.5,0,0,996.3,1010.4
180,2023-04-17T02:59:00,0.6,北西,1.4,北北西,7.8,96,0,0,0.5,7.5,0,0,996.3,1010.4
181,2023-04-17T03:00:00,0.6,北西,1.4,北北西,8,96.1,0,0,0.5,7.5,0,0,996.3,1010.4
182,2023-04-17T03:01:00,0.7,北西,1.4,北北西,7.9,96.2,0,0,0.5,7.5,0,0,996.4,1010.5
183,2023-04-17T03:02:00,0.7,北西,1.4,北北西,7.9,96,0,0,0.5,7.5,0,0,996.4,1010.5
184,2023-04-17T03:03:00,0.8,北西,1.4,北北西,7.9,96.1,0,0,0.5,7.5,0,0,996.5,1010.6
185,2023-04-17T03:04:00,0.8,北西,1.4,北北西,7.9,96.2,0,0,0.5,7.5,0,0,996.5,1010.6
186,2023-04-17T03:05:00,0.8,北北西,1.4,北北西,7.9,96.1,0,0,0.5,7.5,0,0,996.5,1010.6
187,2023-04-17T03:06:00,0.8,北北西,1.6,北北東,7.9,96.1,0,0,0.5,7.5,0,0,996.5,1010.6
188,2023-04-17T03:07:00,0.9,北,2.5,北北東,7.9,96.1,0,0,0.5,7.5,0,0,996.6,1010.7
189,2023-04-17T03:08:00,1,北,2.5,北北東,8,96.2,0,0,0.5,7.5,0,0,996.6,1010.7
190,2023-04-17T03:09:00,1,北,2.5,北北東,8,96.2,0,0,0.5,7.5,0,0,996.6,1010.7
191,2023-04-17T03:10:00,0.9,北,2.5,北北東,8.3,96.4,0,0,0.5,7.5,0,0,996.7,1010.8
192,2023-04-17T03:11:00,0.9,北,2.5,北北東,8.1,96.4,0,0,0.5,7.5,0,0,996.7,1010.8
193,2023-04-17T03:12:00,0.9,北,2.5,北北東,8,96.2,0,0,0.5,7.5,0,0,996.7,1010.8
194,2023-04-17T03:13:00,0.9,北,2.5,北北東,7.9,96.1,0,0,0.5,7.5,0,0,996.7,1010.8
195,2023-04-17T03:14:00,0.8,北,2.5,北北東,7.9,96,0,0,0.5,7.5,0,0,996.8,1010.9
196,2023-04-17T03:15:00,0.8,北,2.5,北北東,8,96.1,0,0,0.5,7.5,0,0,996.8,1010.9
197,2023-04-17T03:16:00,0.7,北,2.5,北北東,7.9,96.2,0,0,0.5,7.5,0,0,996.8,1010.9
198,2023-04-17T03:17:00,0.6,北北西,2.3,北北東,7.8,95.9,0,0,0.5,7.5,0,0,996.9,1011
199,2023-04-17T03:18:00,0.4,北北西,1.4,東北東,7.9,95.9,0,0,0.5,7.5,0,0,996.8,1010.9
200,2023-04-17T03:19:00,0.3,北北西,1.4,東北東,7.8,96,0,0,0.5,7.5,0,0,996.9,1011
201,2023-04-17T03:20:00,0.3,北北西,1.4,東北東,7.8,95.9,0,0,0.5,7.5,0,0,996.9,1011
202,2023-04-17T03:21:00,0.3,北北西,1.4,東北東,7.9,96.1,0,0,0.5,7.5,0,0,997,1011.1
203,2023-04-17T03:22:00,0.3,北西,1.7,西,7.9,96.1,0,0,0.5,7.5,0,0,997,1011.1
204,2023-04-17T03:23:00,0.4,北西,2,西,7.9,96,0,0,0.5,7.5,0,0,997,1011.1
205,2023-04-17T03:24:00,0.6,西北西,2,西,7.9,95.9,0,0,0.5,7.5,0,0,997,1011.1
206,2023-04-17T03:25:00,0.7,西北西,2.2,西,7.9,96,0,0,0.5,7.5,0,0,997,1011.1
207,2023-04-17T03:26:00,0.8,西北西,2.2,西,7.8,95.9,0,0,0.5,7.5,0,0,997,1011.1
208,2023-04-17T03:27:00,0.8,西北西,2.2,西,8,96.1,0,0,0.5,7.5,0,0,996.9,1011
209,2023-04-17T03:28:00,0.9,西北西,2.2,西,8,96.3,0,0,0.5,7.5,0,0,997,1011.1
210,2023-04-17T03:29:00,1,西北西,2.2,西,7.9,96.2,0,0,0.5,7.5,0,0,997,1011.1
211,2023-04-17T03:30:00,1.1,西北西,2.2,西,7.9,96.1,0,0,0.5,7.5,0,0,997,1011.1
212,2023-04-17T03:31:00,1.2,西北西,2.2,西,7.9,96.1,0,0,0.5,7.5,0,0,997.1,1011.2
213,2023-04-17T03:32:00,1.2,西北西,2.2,西,7.9,96,0,0,0.5,7.5,0,0,997.1,1011.2
214,2023-04-17T03:33:00,1.1,西北西,2.2,西,8,96.1,0,0,0.5,7.5,0,0,997.1,1011.2
215,2023-04-17T03:34:00,1.1,西北西,2.2,西,8,96.2,0,0,0.5,7.5,0,0,997.1,1011.2
216,2023-04-17T03:35:00,1,西北西,2.1,西,8.1,96.2,0,0,0.5,7.5,0,0,997.2,1011.3
217,2023-04-17T03:36:00,0.9,北西,1.5,西北西,8,96.1,0,0,0.5,7.5,0,0,997.2,1011.3
218,2023-04-17T03:37:00,0.8,北西,1.5,西北西,8,96.1,0,0,0.5,7.5,0,0,997.3,1011.4
219,2023-04-17T03:38:00,0.9,北西,1.7,北西,8.1,96.1,0,0,0.5,7.5,0,0,997.3,1011.4
220,2023-04-17T03:39:00,0.9,北西,1.8,北西,8.1,96.1,0,0,0.5,7.5,0,0,997.3,1011.4
221,2023-04-17T03:40:00,0.9,北西,1.8,北西,8.3,96.4,0,0,0.5,7.5,0,0,997.3,1011.4
222,2023-04-17T03:41:00,1,北西,1.8,北西,8.1,96.2,0,0,0.5,7.5,0,0,997.3,1011.4
223,2023-04-17T03:42:00,0.9,北西,1.8,北西,8.1,96.1,0,0,0.5,7.5,0,0,997.3,1011.4
224,2023-04-17T03:43:00,0.9,北西,1.8,北西,8,96,0,0,0.5,7.5,0,0,997.3,1011.4
225,2023-04-17T03:44:00,0.9,北北西,1.8,北西,8.1,96,0,0,0.5,7.5,0,0,997.3,1011.4
226,2023-04-17T03:45:00,0.9,北北西,1.8,北西,8.2,96.1,0,0,0.5,7.5,0,0,997.2,1011.3
227,2023-04-17T03:46:00,0.9,北北西,1.8,北西,8.2,96.1,0,0,0.5,7.5,0,0,997.3,1011.4
228,2023-04-17T03:47:00,0.9,北北西,1.8,北西,8.3,96.3,0,0,0.5,7.5,0,0,997.3,1011.4
229,2023-04-17T03:48:00,0.9,北西,1.8,北西,8.4,96.4,0,0,0.5,7.5,0,0,997.3,1011.4
230,2023-04-17T03:49:00,0.9,北西,1.8,西北西,8.2,96.2,0,0,0.5,7.5,0,0,997.4,1011.5
231,2023-04-17T03:50:00,0.8,北西,1.8,西北西,8.2,96,0,0,0.5,7.5,0,0,997.3,1011.4
232,2023-04-17T03:51:00,0.7,北北西,1.8,西北西,8.1,95.9,0,0,0.5,7.5,0,0,997.3,1011.4
233,2023-04-17T03:52:00,0.7,北北西,1.8,西北西,8,95.9,0,0,0.5,7.5,0,0,997.3,1011.4
234,2023-04-17T03:53:00,0.7,北北西,1.8,西北西,8.1,95.9,0,0,0.5,7.5,0,0,997.3,1011.4
235,2023-04-17T03:54:00,0.7,北北西,1.8,西北西,8.1,95.9,0,0,0.5,7.5,0,0,997.4,1011.5
236,2023-04-17T03:55:00,0.7,北北西,1.8,西北西,8.2,96.1,0,0,0.5,7.5,0,0,997.4,1011.5
237,2023-04-17T03:56:00,0.7,北北西,1.8,西北西,8.2,96,0,0,0.5,7.5,0,0,997.4,1011.5
238,2023-04-17T03:57:00,0.7,北北西,1.8,西北西,8.3,96.1,0,0,0.5,7.5,0,0,997.4,1011.5
239,2023-04-17T03:58:00,0.6,北北西,1.8,西北西,8.3,96.2,0,0,0.5,7.5,0,0,997.4,1011.5
240,2023-04-17T03:59:00,0.6,北北西,1.5,北東,8.3,96,0,0,0.5,7.5,0,0,997.4,1011.5
241,2023-04-17T04:00:00,0.6,北,1.5,北東,8.2,95.9,0,0,0.5,7.5,0,0,997.5,1011.6
242,2023-04-17T04:01:00,0.7,北,1.5,北東,8.3,95.9,0,0,0.5,7.5,0,0,997.5,1011.6
243,2023-04-17T04:02:00,0.7,北,1.5,北東,8.3,96.1,0,0,0.5,7.5,0,0,997.4,1011.5
244,2023-04-17T04:03:00,0.8,北北東,1.6,北東,8.2,95.9,0,0,0.5,7.5,0,0,997.3,1011.4
245,2023-04-17T04:04:00,0.8,北北東,1.7,北東,8.3,95.9,0,0,0.5,7.5,0,0,997.3,1011.4
246,2023-04-17T04:05:00,1,北北東,3.1,東北東,8.4,96,0,0,0.5,7.5,0,0,997.2,1011.3
247,2023-04-17T04:06:00,1.2,北東,3.1,東北東,8.4,95.9,0,0,0.5,7.5,0,0,997.2,1011.3
248,2023-04-17T04:07:00,1.4,北東,4,北東,8.4,95.8,0,0,0.5,7.5,0,0,997.3,1011.4
249,2023-04-17T04:08:00,1.6,北東,4,北東,8.4,95.8,0,0,0.5,7.5,0,0,997.4,1011.5
250,2023-04-17T04:09:00,1.7,東北東,4,北東,8.5,95.7,0,0,0.5,7.5,0,0,997.4,1011.5
251,2023-04-17T04:10:00,1.9,東北東,4,北東,8.5,95.7,0,0,0.5,7.5,0,0,997.4,1011.5
252,2023-04-17T04:11:00,2,東北東,4,北東,8.5,95.5,0,0,0.5,7.5,0,0,997.4,1011.5
253,2023-04-17T04:12:00,2.1,東北東,4,北東,8.6,95.5,0,0,0.5,7.5,0,0,997.4,1011.5
254,2023-04-17T04:13:00,2.1,東北東,4,北東,8.6,95.4,0,0,0.5,7.5,0,0,997.4,1011.5
255,2023-04-17T04:14:00,2.2,東北東,4,北東,8.7,95.2,0,0,0.5,7.5,0,0,997.4,1011.5
256,2023-04-17T04:15:00,2.1,北東,4,北東,8.9,95.2,0,0,0.5,7.5,0,0,997.4,1011.5
257,2023-04-17T04:16:00,2,北東,4,北東,8.6,94.4,0,0,0.5,7.5,0,0,997.4,1011.5
258,2023-04-17T04:17:00,1.9,北東,3.8,東北東,8.6,93.6,0,0,0.5,7.5,0,0,997.5,1011.6
259,2023-04-17T04:18:00,1.8,北東,3.5,北東,8.6,93.2,0,0,0.5,7.5,0,0,997.5,1011.6
260,2023-04-17T04:19:00,1.7,北東,3.4,北東,8.5,92.9,0,0,0.5,7.5,0,0,997.5,1011.6
261,2023-04-17T04:20:00,1.5,北東,2.7,東北東,8.6,92.6,0,0,0.5,7.5,0,0,997.5,1011.6
262,2023-04-17T04:21:00,1.5,北東,2.7,東北東,8.6,92.8,0,0,0.5,7.5,0,0,997.5,1011.6
263,2023-04-17T04:22:00,1.4,北東,2.4,北北東,8.6,92.6,0,0,0.5,7.5,0,0,997.5,1011.6
264,2023-04-17T04:23:00,1.4,北東,2.4,北北東,8.6,92.7,0,0,0.5,7.5,0,0,997.5,1011.6
265,2023-04-17T04:24:00,1.3,北東,2.4,北北東,8.5,92.5,0,0,0.5,7.5,0,0,997.6,1011.7
266,2023-04-17T04:25:00,1.3,北東,2,北東,8.4,92.2,0,0,0.5,7.5,0,0,997.6,1011.7
267,2023-04-17T04:26:00,1.3,北北東,2.5,北,8.4,92.2,0,0,0.5,7.5,0,0,997.6,1011.7
268,2023-04-17T04:27:00,1.3,北北東,2.7,北北東,8.4,92.5,0,0,0.5,7.5,0,0,997.6,1011.7
269,2023-04-17T04:28:00,1.4,北北東,2.8,北北東,8.5,93.1,0,0,0.5,7.5,0,0,997.6,1011.7
270,2023-04-17T04:29:00,1.4,北北東,2.8,北北東,8.5,93.6,0,0,0.5,7.5,0,0,997.7,1011.8
271,2023-04-17T04:30:00,1.5,北北東,2.8,北北東,8.4,93.6,0,0,0.5,7.5,0,0,997.7,1011.8
272,2023-04-17T04:31:00,1.4,北北東,2.8,北北東,8.4,93.6,0,0,0.5,7.5,0,0,997.8,1011.9
273,2023-04-17T04:32:00,1.4,北,2.8,北北東,8.5,94.1,0,0,0.5,7.5,0,0,997.8,1011.9
274,2023-04-17T04:33:00,1.4,北,2.8,北北東,8.5,94.2,0,0,0.5,7.5,0,0,997.9,1012
275,2023-04-17T04:34:00,1.4,北,2.8,北北東,8.3,94.1,0,0,0.5,7.5,0,0,997.9,1012
276,2023-04-17T04:35:00,1.4,北北西,2.8,北北東,8.5,94.4,0,0,0.5,7.5,0,0,997.9,1012
277,2023-04-17T04:36:00,1.3,北北西,2.8,北北東,8.5,94.9,0,0,0.5,7.5,0,0,997.9,1012
278,2023-04-17T04:37:00,1.1,北北西,2.8,北北東,8.5,95.1,0,0,0.5,7.5,0,0,998,1012.1
279,2023-04-17T04:38:00,1,北北西,2.4,北北東,8.4,95.1,0,0,0.5,7.5,0,0,998,1012.1
280,2023-04-17T04:39:00,0.8,北北西,2,北北東,8.4,95,0,0,0.5,7.5,0,0,998,1012.1
281,2023-04-17T04:40:00,0.8,北北西,1.8,北西,8.4,95.1,0,0,0.5,7.5,0,0,998,1012.1
282,2023-04-17T04:41:00,0.8,北北西,1.8,北西,8.4,95.1,0,0,0.5,7.5,0,0,998,1012.1
283,2023-04-17T04:42:00,0.8,北,1.8,北西,8.3,95.2,0,0,0.5,7.5,0,0,998,1012.1
284,2023-04-17T04:43:00,0.7,北,1.7,北西,8.4,95.1,0,0,0.5,7.5,0,0,998,1012.1
285,2023-04-17T04:44:00,0.7,北北東,1.4,北北東,8.5,95.4,0,0,0.5,7.5,0,0,998,1012.1
286,2023-04-17T04:45:00,0.7,北北東,1.4,北北東,8.6,95.5,0,0,0.5,7.5,0,0,998,1012.1
287,2023-04-17T04:46:00,0.7,北北東,1.6,北東,8.5,95.5,0,0,0.5,7.5,0,0,998,1012.1
288,2023-04-17T04:47:00,0.8,北東,1.6,北東,8.5,95.5,0,0,0.5,7.5,0,0,998.1,1012.2
289,2023-04-17T04:48:00,0.9,北東,1.8,北東,8.4,95.4,0,0,0.5,7.5,0,0,998.1,1012.2
290,2023-04-17T04:49:00,1,北東,2.3,東,8.3,95.3,0,0,0.5,7.5,0,0,998.1,1012.2
291,2023-04-17T04:50:00,1,北東,2.3,東,8.3,95.4,0,0,0.5,7.5,0,0,998.1,1012.2
292,2023-04-17T04:51:00,1,北東,2.3,東,8.4,95.4,0,0,0.5,7.5,0,0,998.2,1012.3
293,2023-04-17T04:52:00,1,北東,2.3,東,8.3,95.4,0,0,0.5,7.5,0,0,998.2,1012.3
294,2023-04-17T04:53:00,0.9,東北東,2.3,東,8.3,95.5,0,0,0.5,7.5,0,0,998.2,1012.3
295,2023-04-17T04:54:00,0.9,東北東,2.3,東,8.2,95.4,0,0,0.5,7.5,0,0,998.2,1012.3
296,2023-04-17T04:55:00,0.9,東北東,2.3,東,8.2,95.4,0,0,0.5,7.5,0,0,998.2,1012.3
297,2023-04-17T04:56:00,0.9,東北東,2.3,東,8.2,95.4,0,0,0.5,7.5,0,0,998.2,1012.3
298,2023-04-17T04:57:00,0.9,東,2.3,東,8.2,95.6,0,0,0.5,7.5,0,0,998.2,1012.3
299,2023-04-17T04:58:00,0.9,東,2.3,東,8.2,95.6,0,0,0.5,7.5,0,0,998.3,1012.4
300,2023-04-17T04:59:00,1,東,2.1,東,8.2,95.7,0,0,0.5,7.5,0,0,998.2,1012.3
301,2023-04-17T05:00:00,1,東,2.1,東,8.2,95.7,0,0,0.5,7.5,0,0,998.2,1012.3
302,2023-04-17T05:01:00,1,東,2.1,東,8.2,95.7,0,0,0.5,7.5,0,0,998.3,1012.4
303,2023-04-17T05:02:00,1,東,2.1,東,8.3,95.8,0,0,0.5,7.5,0,0,998.3,1012.4
304,2023-04-17T05:03:00,1.1,東,2.1,東,8.3,96,0,0,0.5,7.5,0,0,998.3,1012.4
305,2023-04-17T05:04:00,1.1,東,2.1,東,8.2,95.9,0,0,0.5,7.5,0,0,998.3,1012.4
306,2023-04-17T05:05:00,1.1,東,2.1,東,8.2,95.8,0,0,0.5,7.5,0,0,998.3,1012.4
307,2023-04-17T05:06:00,1.2,東,2.2,東,8.3,95.9,0,0,0.5,7.5,0,0,998.3,1012.4
308,2023-04-17T05:07:00,1.1,東,2.2,東,8.3,96,0,0,0.5,7.5,0,0,998.4,1012.5
309,2023-04-17T05:08:00,1,東,2.2,東,8.2,96,0,0,0.5,7.5,0,0,998.4,1012.5
310,2023-04-17T05:09:00,0.9,東,2.2,東,8.3,95.9,0,0,0.5,7.5,0,0,998.5,1012.6
311,2023-04-17T05:10:00,0.8,東南東,2.2,東,8.3,95.9,0,0,0.5,7.5,0,0,998.5,1012.6
312,2023-04-17T05:11:00,0.8,東南東,2.2,東,8.4,96,0,0,0.5,7.5,0,0,998.5,1012.6
313,2023-04-17T05:12:00,0.9,南東,2.2,東,8.3,96,0,0,0.5,7.5,0,0,998.6,1012.7
314,2023-04-17T05:13:00,0.9,南東,2.2,東,8.3,95.9,0,0,0.5,7.5,0,0,998.6,1012.7
315,2023-04-17T05:14:00,1,南南東,2.2,東,8.2,95.8,0,0,0.5,7.5,0,0,998.6,1012.7
316,2023-04-17T05:15:00,0.9,南,2.2,東,8.3,95.9,0,0,0.5,7.5,0,0,998.7,1012.8
317,2023-04-17T05:16:00,0.8,南,2.1,南南西,8.2,96,0,0,0.5,7.5,0,0,998.8,1012.9